Regional Weather Roundup
Issued by NWS Wakefield, VA

Home | Current Version | Previous Version | Text Only | Print | Product List | Glossary On
Versions: 1 2 3 4 5 6 7 8 9 10 11 12 13 14 15 16 17 18 19 20 21 22 23 24 25 26 27 28 29 30 31 32 33 34 35 36 37 38 39 40 41 42 43 44 45 46 47 48 49 50
000
ASUS41 KAKQ 030715
RWRAKQ

REGIONAL WEATHER ROUNDUP
NATIONAL WEATHER SERVICE WAKEFIELD VA
300 AM EDT TUE MAY 03 2016

Note: "fair" indicates few or no clouds below 12,000 feet with no
significant weather and/or obstructions to visibility. * = Denotes
station may not report precipitation (e.g., rain,snow,etc.),
thunder or fog.

VAZ042-051-052>054-056-030800-
NORTHERN VIRGINIA

CITY           SKY/WX    TMP DP  RH WIND       PRES   REMARKS
WASH NATIONAL  CLOUDY    63  61  93 N6        29.82S
DULLES         CLOUDY    62  61  96 SE3       29.82F
FORT BELVOIR   MOCLDY    62  61  95 NW3       29.81F
QUANTICO       CLOUDY    65  62  90 W3        29.82F
FREDERICKSBRG* CLOUDY    64  64 100 CALM      29.81S
STAFFORD*      CLOUDY    62  61  96 CALM      29.85F
WARRENTON      CLOUDY    64  59  84 CALM      29.82S
CULPEPER*      LGT RAIN  63  63  99 CALM      29.83F
MANASSAS*      MOCLDY    63  63 100 CALM      29.82S
LEESBURG*      CLOUDY    63  63 100 CALM      29.83F FOG
WINCHESTER     LGT RAIN  61  61 100 CALM      29.83F
FRONT ROYAL*   CLOUDY    61  59  94 S3        29.83S
LURAY*         RAIN      61  61 100 CALM      29.83F
$$

VAZ048-049-060>072-079>083-030800-
CENTRAL AND SOUTH CENTRAL VIRGINIA

CITY           SKY/WX    TMP DP  RH WIND       PRES   REMARKS
RICHMOND       RAIN      64  63  96 SW7       29.81F
CHESTERFIELD*  CLOUDY    64  54  68 SW3       29.84F
PETERSBURG*    RAIN      66  66 100 S6        29.84F
HANOVER        RAIN      64  63  96 S5        29.83F
TAPPAHANNOCK*  RAIN      66  66 100 SW5       29.83S
QUINTON*       CLOUDY    64  64  99 S3        29.82S FOG
CHARLOTTSVILLE CLOUDY    63  60  90 SE5       29.81F
GORDONSVILLE*  CLOUDY    62  62  99 SW3       29.81F
ORANGE*        CLOUDY    63  63 100 CALM      29.84F
LOUISA*        LGT RAIN  66  64  94 W3        29.81F
BUMPASS*       CLOUDY    63  63  99 CALM      29.82F
FARMVILLE*     LGT RAIN  64  64 100 SW3       29.83S
CREWE*         CLOUDY    64  64 100 CALM      29.83F
FORT PICKETT*  NOT AVBL
CHASE CITY*    CLOUDY    63  62  95 CALM      29.85F
CLARKSVILLE*     N/A     63  63 100 CALM      29.84F
SOUTH HILL*    CLOUDY    64  64  98 SW6       29.90F
LAWRENCEVILLE* CLOUDY    65  65 100 CALM      29.84F
EMPORIA*         N/A     64  64 100 CALM      29.86F
$$

VAZ088>098-030800-
SOUTHEAST VIRGINIA

CITY           SKY/WX    TMP DP  RH WIND       PRES   REMARKS
NORFOLK        MOCLDY    67  64  90 S5        29.85F
VIRGINIA BEACH CLOUDY    71  64  78 W5        29.85F
NORFOLK NAVAL  CLOUDY    68  65  90 SW6       29.86F
WEST POINT*    CLOUDY    65  64  97 SW5       29.84F
SALUDA*        CLOUDY    65  65 100 CALM      29.82F
NEWPORT NEWS   CLOUDY    67  65  93 S3        29.84F
LANGLEY AFB    CLOUDY    68  66  94 S7        29.84F FOG
FORT EUSTIS    CLOUDY    67  66  99 SW3       29.83F
WILLIAMSBURG*  FAIR      66  66 100 CALM      29.85S
HR EXEC AP*      N/A     66  64  94 CALM      29.87F
FRANKLIN*      CLOUDY    66  64  96 S3        29.86F
US460-WAKEFLD  LGT RAIN  67  64  90 CALM      29.85S
$$

VAZ020-022-025-037-045-030800-
WEST CENTRAL AND SOUTHWEST VIRGINIA

CITY           SKY/WX    TMP DP  RH WIND       PRES   REMARKS
STAUNTON*      CLOUDY   N/A N/A N/A CALM      29.85F
WAYNESBORO*    CLOUDY    59  58  97 CALM      29.85F
HOT SPRINGS VA FOG       54  54 100 W10       29.90R VSB<1/4
LYNCHBURG      LGT RAIN  61  61 100 S3        29.85F
DANVILLE       RAIN      62  61  96 VRB5      29.86S FOG
SOUTH BOSTON*  CLOUDY    62  61  95 CALM      29.85F
MARTINSVILLE   LGT RAIN  57  57 100 CALM      29.88F
ROANOKE        CLOUDY    61  59  93 CALM      29.87F
BLACKSBURG     CLOUDY    57  57  98 CALM      29.91F
DUBLIN*        CLOUDY    58  58 100 CALM      29.90F
MARION*        CLOUDY    57  56  95 CALM      29.93F
HILLSVILLE*    CLOUDY    55  55 100 SW3       29.89S
RICHLANDS*     CLOUDY    55  54  95 CALM      29.91F
WISE*          CLOUDY    55  55 100 CALM      29.92F
ABINGDON*      LGT RAIN  59  58  96 CALM      29.91F
$$

MDZ021>025-VAZ099-100-030800-
SOUTHERN MARYLAND AND THE DELMARVA PENINSULA

CITY           SKY/WX    TMP DP  RH WIND       PRES   REMARKS
PATUXENT RIVER CLOUDY    65  63  93 SW5       29.81F
BAY BRIDGE APT NOT AVBL
LEONARDTOWN    CLOUDY    64  63  94 SW5       29.83F
DOVER          CLOUDY    59  59 100 NE2       29.80F
GEORGETOWN     LGT RAIN  60  60 100 SE5       29.82F FOG
EASTON         LGT RAIN N/A N/A N/A CALM      29.84F
CAMBRIDGE        N/A     64  63  94 CALM      29.80F
SALISBURY      LGT RAIN  64  63  96 NW9       29.79F FOG
OCEAN CITY     LGT RAIN  61  60  97 E6        29.81F FOG
WALLOPS ISLAND MOCLDY    65  64  97 S3        29.82F
ACCOMACK*      FAIR      63  61  94 S5        29.83F
$$

NCZ012>017-030>032-030800-
NORTH CENTRAL AND EASTERN NORTH CAROLINA

CITY           SKY/WX    TMP DP  RH WIND       PRES   REMARKS
ROANOKE RAPIDS CLOUDY    64  63  94 CALM      29.86F
RALEIGH        LGT RAIN  67  65  93 NW3       29.88F
ELIZABETH CITY CLOUDY    70  67  90 SW10      29.85F
AHOSKIE*       CLOUDY    65  63  93 CALM      29.86F
EDENTON*       CLOUDY    71  71 100 SW7       29.86F
CURRITUCK*     CLOUDY    71  67  88 SW6       29.85F
KILL DEVIL HLS CLOUDY    72  68  88 SW6       29.85S
MANTEO         NOT AVBL
CAPE HATTERAS  CLOUDY    71  69  93 SW14G21   29.89F
TARBORO*       CLOUDY    67  64  87 CALM      29.86F
GOLDSBORO      NOT AVBL
WASHINGTON     MOCLDY    70  67  91 SW10      29.85F
GREENVILLE     MOCLDY    70  68  94 SW9       29.88S
NEW BERN       CLOUDY    72  68  87 S10       29.88F
WILMINGTON     MOCLDY    73  69  87 S9        29.88F
$$

VAZ048-030800-
ELSEWHERE

CITY           SKY/WX    TMP DP  RH WIND       PRES   REMARKS
HARRISBURG PA  LGT RAIN  59  56  89 E5        29.82F FOG
BALTIMORE      CLOUDY    60  58  92 NE8       29.81F FOG
ANNAPOLIS      FOG       61  61 100 N3        29.80F VSB 1/2
ANDREWS AFB    FOG       63  63 100 NW3       29.80F VSB 3/4
PHILADELPHIA   CLOUDY    58  54  86 E10       29.84F
HENDERSON NC   LGT RAIN N/A N/A N/A SW8       29.86F
GREENSBORO     RAIN      63  63 100 S3        29.86F FOG
ROCKY MOUNT    CLOUDY    68  65  90 W5        29.87R
$$

VAZ100-030800-
MARINE

STATION/POSITION TIME  TEMP    WIND        PRES    WAVE   SWELL
                       AIR SEA DIR/SP/G            HT/PER HT/PER
                 (UTC) (F)     (DEG/KT/KT) (MB)    (FT/S) (FT/S)
BRANDYWINE LGT   0600   60     140/ 17/ 19 1009.4F
CAPE MAY NJ      0600   56 58   90/  6/ 10 1009.6F
LEWES DE         0600   57 57  170/  4/  6 1010.0F
15NM E FENWICK I 0650   55 53              1010.3F   3/ 9
OCEAN-CITY-INLET 0600   62 58  120/  3/  3 1009.8F
WACHAPREAGUE VA  0600   66 66  260/  4/  7 1010.9R
THOMAS POINT MD  0700   62 58  360/  2/  2 1010.5F
GOOSES REEF MD   0600   63 59  220/ 10/ 12 1010.8F   1/ 3
COVE POINT MD    0600   65     220/  9/ 11 1010.6S
SOLOMONS ISLAND  0600   65 61  190/  9/ 11   N/A
BISHOPS HEAD MD  0600   64 63  190/  8/ 11 1009.8F
PINEY POINT MD   0600          160/  9/ 10   N/A
POTOMAC MD       0600   62 60  170/  6/  6 1009.7F   1
CAMBRIDGE MD     0600   66 60  200/  5/  8 1009.2R
LEWISETTA VA     0600   65 62  300/  2/  3 1010.0F
RAPPAHANNOCK LGT 0600          360/  3/  4 1011.1F
STINGRAY PT      0600   63 62  110/  4/  6 1010.7F   0
YORK RVR RNG VA  0600   66     220/  3/  4 1010.3F
YORKTOWN VA      0600   67 64  160/  1/  3 1010.4F
JAMESTOWN VA     0600   67 67   CALM  /  2   N/A
DOMINION TERM VA 0600   68     350/  3/  4 1011.1F
KIPTOPEKE VA     0600      62  290/  6/  7   N/A
CHES BAY BRIDGE  0600   66 62  250/  7/  8 1010.9R
CAPE HENRY VA    0600   67     270/  6/ 10   N/A
CHESAPEAKE LGHT  0600   66     290/ 14/ 15 1012.4R
WILLOUBY STN VA  0600   68     300/  5/  6 1012.0F
CAPE HENRY BUOY  0612      59                N/A     3/10
CAPE CHARLES BUO 0626      58                N/A     2/ 9   2/ 9
OFFSHORE WE BUOY 0621      56                N/A     3/10   2/10
64NM E OF VA BCH 0650   60 54  200/ 12/ 14 1010.8F   4/ 9   2/ 9
DUCK PIER NC     0600   72 67  210/ 12/ 15 1010.8F
44100 DUCK FRF   0624      61                N/A     3/11   2/11
44056 DUCK FRF   0611      58                N/A     3/11   2/11
OREGON INLET NC  0600   72 72  190/ 18/ 21 1011.4F
HATTERAS NC      0600   72 70  210/ 12/ 16 1012.4F
DIAMOND SHLS NC  0650   74 74  210/ 16/ 19 1012.2F   4/ 9   2/ 9
CAPE LOOKOUT NC  0700   71     200/ 14/ 16 1011.9F
$$



USA.gov is the U.S. government's official web portal to all federal, state and local government web resources and services.